| time (UTC) | temp F | wind direction | speed MPH | gust MPH | rain 1hr in | rain 24hr in | rain mn in | humidity % | barometer mb |
| 20260507111600 | 51 | 94 | 0.0 | 2.0 | 0.00 | 0.00 | 0.00 | 81 | 1014.8 |
| 20260507110058 | 51 | 94 | 0.0 | 2.0 | 0.00 | 0.00 | 0.00 | 81 | 1014.9 |
| 20260507104557 | 52 | 94 | 0.0 | 3.0 | 0.00 | 0.00 | 0.00 | 80 | 1014.9 |
| 20260507103058 | 52 | 80 | 0.0 | 2.0 | 0.00 | 0.00 | 0.00 | 81 | 1015.1 |
| 20260507101556 | 53 | 79 | 0.0 | 2.0 | 0.00 | 0.00 | 0.00 | 81 | 1015.1 |
| 20260507100106 | 52 | 79 | 0.0 | 0.0 | 0.00 | 0.00 | 0.00 | 81 | 1015.1 |
| 20260507094559 | 52 | 78 | 0.0 | 3.0 | 0.00 | 0.00 | 0.00 | 81 | 1015.3 |
| 20260507093053 | 51 | 72 | 0.0 | 0.0 | 0.00 | 0.00 | 0.00 | 81 | 1015.4 |
| 20260507091608 | 52 | 72 | 0.0 | 0.0 | 0.00 | 0.00 | 0.00 | 81 | 1015.5 |
| 20260507090050 | 51 | 72 | 0.0 | 0.0 | 0.00 | 0.00 | 0.00 | 80 | 1015.7 |
| 20260507084555 | 52 | 72 | 0.0 | 0.0 | 0.00 | 0.00 | 0.00 | 79 | 1015.9 |
| 20260507083044 | 52 | 72 | 0.0 | 0.0 | 0.00 | 0.00 | 0.00 | 78 | 1016.0 |
| 20260507081549 | 53 | 72 | 0.0 | 1.0 | 0.00 | 0.00 | 0.00 | 78 | 1016.2 |
| 20260507080046 | 53 | 61 | 0.0 | 5.0 | 0.00 | 0.00 | 0.00 | 78 | 1016.2 |
| 20260507074548 | 53 | 45 | 0.0 | 1.0 | 0.00 | 0.00 | 0.00 | 77 | 1016.1 |
| 20260507073040 | 53 | 45 | 0.0 | 2.0 | 0.00 | 0.00 | 0.00 | 76 | 1016.3 |
| 20260507071537 | 54 | 45 | 0.0 | 1.0 | 0.00 | 0.00 | 0.00 | 76 | 1016.3 |
| 20260507070038 | 54 | 45 | 0.0 | 3.0 | 0.00 | 0.00 | 0.00 | 76 | 1016.4 |
| 20260507064539 | 54 | 44 | 0.0 | 1.0 | 0.00 | 0.00 | 0.00 | 75 | 1016.5 |
| 20260507063041 | 54 | 44 | 0.0 | 1.0 | 0.00 | 0.00 | 0.00 | 75 | 1016.5 |
| 20260507061540 | 55 | 44 | 0.0 | 6.0 | 0.00 | 0.00 | 0.00 | 75 | 1016.5 |
| 20260507060036 | 55 | 38 | 5.0 | 7.0 | 0.00 | 0.00 | 0.00 | 77 | 1016.4 |
| 20260507054538 | 54 | 115 | 0.0 | 4.0 | 0.00 | 0.00 | 0.00 | 77 | 1016.7 |
| 20260507053036 | 54 | 211 | 0.0 | 2.0 | 0.00 | 0.00 | 0.00 | 78 | 1016.6 |
| 20260507051536 | 54 | 213 | 1.0 | 3.0 | 0.00 | 0.00 | 0.00 | 77 | 1016.7 |
| 20260507050036 | 54 | 213 | 0.0 | 2.0 | 0.00 | 0.00 | 0.00 | 77 | 1016.6 |
| 20260507044536 | 55 | 213 | 0.0 | 2.0 | 0.00 | 0.00 | 0.00 | 76 | 1016.5 |
| 20260507043048 | 55 | 213 | 0.0 | 1.0 | 0.00 | 0.00 | 0.00 | 75 | 1016.5 |
| 20260507041535 | 56 | 213 | 0.0 | 1.0 | 0.00 | 0.00 | 0.00 | 74 | 1016.4 |
| 20260507040037 | 56 | 213 | 0.0 | 5.0 | 0.00 | 0.00 | 0.00 | 73 | 1016.4 |
| 20260507034537 | 57 | 213 | 3.0 | 6.0 | 0.00 | 0.00 | 0.00 | 72 | 1016.3 |
| 20260507033038 | 57 | 189 | 2.0 | 4.0 | 0.00 | 0.00 | 0.00 | 71 | 1016.0 |
| 20260507031539 | 58 | 164 | 2.0 | 6.0 | 0.00 | 0.00 | 0.00 | 70 | 1015.8 |
| 20260507030035 | 59 | 198 | 3.0 | 5.0 | 0.00 | 0.00 | 0.00 | 67 | 1015.7 |
| 20260507024534 | 60 | 226 | 4.0 | 8.0 | 0.00 | 0.00 | 0.00 | 64 | 1015.6 |
| 20260507023035 | 62 | 228 | 6.0 | 10.0 | 0.00 | 0.00 | 0.00 | 61 | 1015.5 |
| 20260507021537 | 64 | 212 | 6.0 | 10.0 | 0.00 | 0.00 | 0.00 | 56 | 1015.4 |
| 20260507020047 | 66 | 200 | 5.0 | 9.0 | 0.00 | 0.00 | 0.00 | 52 | 1015.3 |
| 20260507014536 | 66 | 197 | 6.0 | 13.0 | 0.00 | 0.00 | 0.00 | 50 | 1015.2 |
| 20260507013034 | 67 | 173 | 7.0 | 14.0 | 0.00 | 0.00 | 0.00 | 49 | 1015.0 |
| 20260507011543 | 67 | 223 | 12.0 | 17.0 | 0.00 | 0.00 | 0.00 | 48 | 1014.9 |
| 20260507010036 | 69 | 212 | 12.0 | 17.0 | 0.00 | 0.00 | 0.00 | 47 | 1014.8 |
| 20260507004532 | 69 | 218 | 11.0 | 18.0 | 0.00 | 0.00 | 0.00 | 47 | 1014.8 |
| 20260507003031 | 70 | 217 | 12.0 | 17.0 | 0.00 | 0.00 | 0.00 | 48 | 1014.8 |
| 20260507001602 | 70 | 223 | 14.0 | 18.0 | 0.00 | 0.00 | 0.00 | 48 | 1014.6 |
| 20260507000040 | 71 | 188 | 10.0 | 19.0 | 0.00 | 0.00 | 0.00 | 48 | 1014.5 |
| 20260506234531 | 71 | 217 | 12.0 | 21.0 | 0.00 | 0.00 | 0.00 | 47 | 1014.5 |
| 20260506233031 | 72 | 205 | 12.0 | 18.0 | 0.00 | 0.00 | 0.00 | 47 | 1014.5 |
| 20260506231530 | 73 | 155 | 9.0 | 16.0 | 0.00 | 0.00 | 0.00 | 46 | 1014.5 |
| 20260506230047 | 74 | 213 | 12.0 | 17.0 | 0.00 | 0.00 | 0.00 | 45 | 1014.6 |
| 20260506224526 | 74 | 199 | 11.0 | 20.0 | 0.00 | 0.00 | 0.00 | 45 | 1014.8 |
| 20260506223030 | 74 | 203 | 11.0 | 19.0 | 0.00 | 0.00 | 0.00 | 45 | 1015.0 |
| 20260506221522 | 75 | 248 | 9.0 | 18.0 | 0.00 | 0.00 | 0.00 | 44 | 1015.1 |
| 20260506220023 | 75 | 225 | 9.0 | 16.0 | 0.00 | 0.00 | 0.00 | 43 | 1015.3 |
| 20260506214522 | 76 | 225 | 10.0 | 16.0 | 0.00 | 0.00 | 0.00 | 41 | 1015.5 |
| 20260506213019 | 75 | 219 | 10.0 | 17.0 | 0.00 | 0.00 | 0.00 | 42 | 1015.7 |
| 20260506211521 | 76 | 194 | 8.0 | 15.0 | 0.00 | 0.00 | 0.00 | 40 | 1015.8 |
| 20260506210034 | 75 | 157 | 0.0 | 7.0 | 0.00 | 0.00 | 0.00 | 32 | 1015.9 |
| 20260506204515 | 74 | 315 | 3.0 | 8.0 | 0.00 | 0.00 | 0.00 | 33 | 1016.1 |
| 20260506203012 | 74 | 163 | 1.0 | 9.0 | 0.00 | 0.00 | 0.00 | 34 | 1016.2 |
| 20260506201513 | 73 | 286 | 1.0 | 6.0 | 0.00 | 0.00 | 0.00 | 36 | 1016.4 |
| 20260506200007 | 71 | 65 | 2.0 | 10.0 | 0.00 | 0.00 | 0.00 | 38 | 1016.6 |
| 20260506194507 | 71 | 281 | 3.0 | 9.0 | 0.00 | 0.00 | 0.00 | 39 | 1016.7 |
| 20260506193007 | 72 | 92 | 5.0 | 9.0 | 0.00 | 0.00 | 0.00 | 37 | 1017.0 |
| 20260506191504 | 70 | 138 | 3.0 | 5.0 | 0.00 | 0.00 | 0.00 | 42 | 1017.2 |
| 20260506190002 | 69 | 179 | 5.0 | 8.0 | 0.00 | 0.00 | 0.00 | 42 | 1017.3 |
| 20260506184559 | 67 | 171 | 1.0 | 6.0 | 0.00 | 0.00 | 0.00 | 43 | 1017.5 |
| 20260506183107 | 67 | 150 | 4.0 | 7.0 | 0.00 | 0.00 | 0.00 | 48 | 1017.7 |
| 20260506181601 | 66 | 136 | 2.0 | 9.0 | 0.00 | 0.01 | 0.00 | 48 | 1017.8 |
| 20260506180055 | 65 | 115 | 2.0 | 5.0 | 0.00 | 0.01 | 0.00 | 49 | 1017.9 |
| 20260506174552 | 64 | 106 | 2.0 | 8.0 | 0.00 | 0.01 | 0.00 | 49 | 1017.9 |
| 20260506173058 | 63 | 61 | 3.0 | 6.0 | 0.00 | 0.01 | 0.00 | 51 | 1017.8 |
| 20260506171552 | 63 | 69 | 3.0 | 7.0 | 0.00 | 0.01 | 0.00 | 50 | 1017.9 |
| 20260506170054 | 61 | 128 | 1.0 | 6.0 | 0.00 | 0.01 | 0.00 | 54 | 1017.9 |
| 20260506164558 | 60 | 204 | 3.0 | 7.0 | 0.00 | 0.01 | 0.00 | 54 | 1017.9 |
| 20260506163054 | 60 | 152 | 4.0 | 9.0 | 0.00 | 0.01 | 0.00 | 56 | 1017.9 |
| 20260506161543 | 59 | 111 | 2.0 | 4.0 | 0.00 | 0.01 | 0.00 | 59 | 1017.9 |
| 20260506160043 | 57 | 158 | 4.0 | 8.0 | 0.00 | 0.01 | 0.00 | 61 | 1017.8 |
| 20260506154539 | 56 | 164 | 3.0 | 5.0 | 0.00 | 0.01 | 0.00 | 64 | 1017.9 |
| 20260506153034 | 55 | 164 | 0.0 | 5.0 | 0.00 | 0.01 | 0.00 | 69 | 1017.8 |
| 20260506151535 | 53 | 114 | 0.0 | 3.0 | 0.00 | 0.01 | 0.00 | 79 | 1017.9 |
| 20260506150028 | 51 | 113 | 0.0 | 4.0 | 0.00 | 0.01 | 0.00 | 87 | 1017.9 |
| 20260506144528 | 48 | 110 | 0.0 | 0.0 | 0.00 | 0.01 | 0.00 | 89 | 1017.9 |
| 20260506143023 | 46 | 110 | 0.0 | 0.0 | 0.00 | 0.01 | 0.00 | 90 | 1017.7 |
| 20260506141527 | 46 | 110 | 0.0 | 0.0 | 0.00 | 0.01 | 0.00 | 90 | 1017.7 |
| 20260506140017 | 44 | 110 | 0.0 | 0.0 | 0.00 | 0.01 | 0.00 | 90 | 1017.7 |
| 20260506134516 | 43 | 110 | 0.0 | 0.0 | 0.00 | 0.01 | 0.00 | 90 | 1017.6 |
| 20260506133016 | 42 | 110 | 0.0 | 0.0 | 0.00 | 0.01 | 0.00 | 90 | 1017.4 |
| 20260506131514 | 42 | 110 | 0.0 | 0.0 | 0.00 | 0.01 | 0.00 | 89 | 1017.3 |
| 20260506130014 | 42 | 110 | 0.0 | 0.0 | 0.00 | 0.01 | 0.00 | 89 | 1017.2 |
| 20260506124514 | 42 | 110 | 0.0 | 0.0 | 0.00 | 0.01 | 0.00 | 89 | 1017.1 |
| 20260506123015 | 42 | 110 | 0.0 | 0.0 | 0.00 | 0.01 | 0.00 | 88 | 1017.0 |
| 20260506121514 | 42 | 110 | 0.0 | 0.0 | 0.00 | 0.01 | 0.00 | 89 | 1016.8 |
| 20260506120025 | 42 | 110 | 0.0 | 0.0 | 0.00 | 0.01 | 0.00 | 88 | 1016.9 |
| 20260506114511 | 42 | 110 | 0.0 | 1.0 | 0.00 | 0.01 | 0.00 | 88 | 1016.9 |
| 20260506113011 | 42 | 110 | 0.0 | 1.0 | 0.00 | 0.01 | 0.00 | 88 | 1016.7 |